Location: Trout Lake
(45.9980°N, 121.5270°W)
Time: 13:27:51
(UTC-07:00)

Daily predictions for brighter satellites

Satellite Brightness Start Highest point End
(mag) Time Altitude Azimuth Time Altitude Azimuth Time Altitude Azimuth
Cosmos 1408 4.2 20:30:29 10° NNE 20:33:06 18° ENE 20:35:44 10° ESE
Cosmos 1455 3.0 20:30:22 10° SSE 20:33:44 30° E 20:37:10 10° NNE
Cosmos 2333 Rocket 2.7 20:29:43 10° S 20:34:53 38° ESE 20:40:03 10° NE
Meteor 2-15 Rocket 4.5 20:29:17 10° N 20:35:25 68° ENE 20:41:31 10° SSE
Cosmos 2221 3.5 20:31:52 10° SSW 20:36:01 52° WNW 20:40:12 10° N
ERS-2 2.2 20:32:24 10° SSE 20:36:03 86° WSW 20:39:45 10° NNW
Cosmos 2228 Rocket 4.2 20:33:05 10° SE 20:36:33 23° E 20:40:03 10° NE
Cosmos 1892 2.8 20:34:06 10° N 20:37:59 62° E 20:41:49 10° SSE
Meteor 2-2 Rocket 4.4 20:33:36 10° S 20:39:19 59° E 20:45:11 10° NNE
COSMOS 2428 2.7 20:34:18 10° SSW 20:39:59 69° ESE 20:45:41 10° NNE
NOSS 2-1 (E) 3.2 20:36:45 10° SSW 20:40:19 58° SE 20:44:25 10° NE
Cosmos 1844 Rocket 2.9 20:34:42 10° NNW 20:40:23 77° WSW 20:46:02 10° SSE
Cosmos 2333 4.2 20:36:43 10° SSW 20:42:20 74° ESE 20:47:57 10° NNE
Cosmos 44 4.1 20:38:59 10° SW 20:43:24 54° NW 20:48:08 10° NNE
Cosmos 1844 3.8 20:38:30 10° NNW 20:44:13 90° WSW 20:49:58 10° SSE
Cosmos 1805 Rocket 4.3 20:43:20 10° NNW 20:47:37 56° W 20:51:50 10° S
Genesis I 3.4 20:47:45 10° NNW 20:51:49 63° NE 20:55:26 13° SE
H-2A R/B 3.4 20:48:27 11° ESE 20:52:08 22° ENE 20:55:54 10° NNE
YAOGAN 6 2.7 20:48:59 10° S 20:52:34 82° WSW 20:56:15 10° NNW
Cosmos 2219 Rocket 2.2 20:47:31 10° S 20:53:05 61° ESE 20:58:39 10° NNE
NOSS 3-3 (A) 4.0 20:47:35 10° SSW 20:53:30 58° ESE 20:59:59 10° NE
NOSS 3-3 (C) 4.0 20:47:42 10° SSW 20:53:36 58° ESE 21:00:04 10° NE
ERS-1 Rocket 4.4 20:50:13 11° ESE 20:53:45 21° ENE 20:57:28 10° NNE
Cosmos 2237 Rocket 2.9 20:49:01 10° SSE 20:53:53 31° ESE 20:58:47 10° NE
Cosmos 1328 Rocket 3.7 20:51:52 10° S 20:56:09 53° E 21:00:29 10° NNE
Resurs 01 Rocket 1.7 20:55:35 10° SSE 21:00:01 86° WSW 21:04:30 10° NNW
Cosmos 2278 Rocket 2.4 20:54:56 10° NNW 21:00:32 57° ENE 21:05:27 13° SE
USA 267 4.5 20:56:54 10° E 21:00:46 16° ESE 21:04:36 10° SSE
Cosmos 2154 Rocket 4.1 20:55:52 10° S 21:02:07 85° W 21:08:23 10° N
Cosmos 2251 Rocket 4.3 20:58:45 10° NNW 21:03:58 53° WSW 21:09:09 10° S
Cosmos 1470 Rocket 3.6 21:01:10 10° N 21:05:32 60° E 21:09:51 10° SSE
ATLAS 5 CENTAUR R/B 4.5 21:02:43 10° NNW 21:05:53 15° NNE 21:09:15 10° NE
Cosmos 44 Rocket 4.3 21:02:23 10° SW 21:07:02 51° NW 21:11:52 10° NNE
Cosmos 1340 3.7 21:04:25 10° SSW 21:08:06 49° WNW 21:11:48 10° N
NOAA 11 4.2 21:03:09 10° SSE 21:08:38 75° ENE 21:14:09 10° N
ATLAS CENTAUR R/B 1.3 21:05:34 10° SSW 21:09:05 48° ESE 21:12:47 10° NE
Envisat 4.4 21:04:58 10° SSW 21:09:41 38° W 21:14:25 10° NNW
Cosmos 1825 2.3 21:15:15 10° N 21:19:00 54° ENE 21:21:24 20° SSE
Cosmos 2056 Rocket 4.4 21:15:53 13° SSE 21:19:56 29° E 21:24:32 10° NE
Cosmos 405 4.2 21:18:10 10° NNE 21:21:08 25° ENE 21:22:04 22° E
Aureole 2 3.9 21:18:19 10° SSW 21:21:18 64° ESE 21:24:13 10° NNE
Cosmos 2098 Rocket 3.6 21:20:02 16° SSE 21:23:16 36° E 21:26:49 10° NNE
Cosmos 2341 Rocket 4.1 21:17:44 10° S 21:24:06 85° W 21:30:29 10° N
OE (NEXTSAT) 4.3 21:20:37 10° WSW 21:24:11 76° SSE 21:26:27 21° E
USA 186 3.9 21:22:48 10° SW 21:24:15 15° W 21:25:43 10° NW
Cosmos 2218 Rocket 4.1 21:24:04 10° S 21:30:18 62° E 21:36:37 10° NNE
Cosmos 1933 Rocket 3.6 21:29:50 10° N 21:34:15 82° W 21:37:45 16° S
NOSS 0 Rocket 3.8 21:30:45 10° SSW 21:36:54 81° ESE 21:43:08 10° NNE
Cosmos 1624 Rocket 4.4 21:32:55 14° SSE 21:36:59 41° ESE 21:41:51 10° NE
USA 234 4.4 21:31:08 10° ENE 21:37:02 38° NNE 21:42:58 10° NW
Cosmos 1190 Rocket 4.3 21:33:16 10° NNW 21:38:27 52° ENE 21:41:04 27° SE
Cosmos 1869 3.3 21:38:19 20° S 21:40:57 64° E 21:44:56 10° NNE
Cosmos 2366 rocket 3.9 21:36:53 10° S 21:43:02 69° E 21:49:18 10° NNE
SL-16 R/B 2.9 21:41:17 25° SE 21:43:21 32° ESE 21:48:19 10° NE
Cosmos 1151 Rocket 3.2 21:39:51 10° SSW 21:44:05 72° W 21:48:23 10° N
Cosmos 1140 Rocket 4.5 21:40:13 10° N 21:44:51 32° ENE 21:46:47 24° E
Terra 3.5 21:43:59 17° E 21:45:13 19° ENE 21:48:31 10° NNE
GEOS 3 Rocket 4.1 21:41:57 10° NE 21:46:54 37° ESE 21:51:43 10° S
Cosmos 1707 Rocket 4.5 21:50:41 28° E 21:50:42 28° E 21:54:26 10° NNE
Cosmos 1943 Rocket 4.3 21:49:05 10° N 21:51:43 13° NE 21:54:21 10° ENE
ARGOS 3.1 21:48:41 23° SSE 21:52:08 88° ENE 21:57:31 10° NNW
SL-8 Rocket 4.1 21:46:23 10° SSW 21:52:41 79° W 21:59:00 10° N
Cosmos 1869 Rocket 3.7 21:52:08 10° N 21:56:27 54° ENE 21:57:34 41° SE
MetOp-B 4.1 21:53:32 26° SSE 21:56:39 86° ENE 22:02:01 10° NNW
Helios 1B rocket 3.8 21:53:27 10° NE 21:56:07 24° ENE 21:56:07 24° ENE
Lacrosse 5 3.6 21:52:54 10° NW 21:57:11 27° NNE 22:01:09 11° ENE
Cosmos 1339 Rocket 4.4 21:51:40 10° N 21:57:48 88° E 22:01:50 23° S
SPOT 5 3.2 21:58:33 36° ESE 21:59:45 45° ENE 22:04:00 10° N
ATLAS 2AS CENTAUR R/B 3.8 21:57:34 10° NW 22:04:54 44° WSW 22:10:10 17° S
Cosmos 1408 4.2 22:05:01 10° NNW 22:08:17 31° W 22:10:34 16° SW
Cosmos 1733 Rocket 4.5 22:05:02 10° NNE 22:08:32 23° ENE 22:08:32 23° ENE
Cosmos 1441 Rocket 3.3 22:09:54 54° ENE 22:09:54 54° ENE 22:13:18 10° NNE
Cosmos 1980 4.1 22:04:22 10° SW 22:10:01 65° WNW 22:15:42 10° NNE
DMSP B5D2-2 4.3 22:06:27 10° NNE 22:11:32 48° E 22:12:36 42° SE
Cosmos 2297 3.6 22:06:13 10° NNW 22:11:56 81° ENE 22:14:04 40° SE
Cosmos 2344 3.9 22:08:24 25° SSE 22:12:02 40° ESE 22:19:30 10° NE
Meteor 2-10 Rocket 3.7 22:08:14 16° S 22:12:56 88° W 22:18:49 10° N
Helios 1A 2.9 22:12:28 56° SE 22:13:16 75° ENE 22:17:28 10° N
Cosmos 2333 Rocket 3.7 22:13:53 10° WSW 22:19:08 38° NW 22:24:24 10° NNE
Cosmos 2369 Rocket 3.6 22:15:29 10° N 22:20:10 25° NE 22:22:03 21° ENE
BREEZE M DEB (TANK) 4.2 22:03:05 10° WSW 22:21:39 80° NNW 22:25:52 15° ENE
USA 81 4.1 22:16:26 10° N 22:21:43 76° W 22:24:02 34° S
SPOT 1/Viking Rocket 3.5 22:21:26 48° SE 22:22:52 72° ENE 22:28:06 10° N
Cosmos 1862 3.3 22:20:56 10° NNW 22:24:59 76° W 22:25:29 65° SSW
USA 245 4.4 22:26:10 27° NNW 22:26:10 27° NNW 22:27:26 10° NNW
SL-8 R/B 3.5 22:23:08 10° WSW 22:27:55 76° SSE 22:28:58 53° E
Cosmos 407 Rocket 3.7 22:24:58 10° NNW 22:30:02 61° WSW 22:31:35 42° SSW
H-2A R/B 2.5 22:29:05 31° SSW 22:31:14 53° W 22:36:07 10° NNW
ERS-1 Rocket 3.4 22:30:13 35° SSW 22:32:08 57° W 22:37:06 10° NNW
Cosmos 614 Rocket 3.9 22:28:32 10° NNW 22:33:47 78° ENE 22:34:42 60° SE
Cosmos 1437 Rocket 3.8 22:30:10 10° N 22:33:02 35° NE 22:33:02 35° NE
BREEZE-M DEB (TANK) 4.2 22:33:32 10° WNW 22:34:37 23° NW 22:34:37 23° NW
NOSS 3-4 (A) 3.9 22:28:37 10° NW 22:35:37 74° SW 22:38:28 41° SSE
NOSS 3-4 (C) 3.9 22:28:43 10° NW 22:35:43 74° SW 22:38:33 41° SSE
Cosmos 2219 Rocket 4.4 22:32:46 10° WSW 22:37:27 26° NW 22:42:08 10° N
Cosmos 2237 Rocket 3.3 22:32:26 10° SW 22:37:46 44° NW 22:43:10 10° NNE
Cosmos 405 Rocket 2.8 22:38:21 72° WNW 22:38:21 72° WNW 22:42:15 10° N
Cosmos 1934 Rocket 4.1 22:39:15 46° ESE 22:39:51 48° E 22:45:38 10° NNE
CZ-2C R/B 4.2 22:36:49 10° NE 22:39:42 21° ENE 22:39:42 21° ENE
IGS 5A 3.7 22:41:25 58° NE 22:41:25 58° NE 22:45:11 10° N
SL-19 R/B 4.2 22:40:35 53° SSE 22:41:59 88° WSW 22:47:37 10° NNW
Cosmos 2278 Rocket 4.0 22:39:46 10° NW 22:44:12 24° WSW 22:47:20 15° SW
USA 267 3.1 22:38:10 10° NE 22:44:39 62° SE 22:51:06 10° SW
ATLAS CENTAUR R/B 3.8 22:45:23 10° W 22:48:18 21° NW 22:51:22 10° NNE
Cosmos 676 Rocket 4.1 22:43:53 10° NNW 22:49:07 68° WSW 22:49:56 58° SSW
ATLAS 5 CENTAUR R/B 3.3 22:46:50 10° NNW 22:52:10 37° NE 22:54:11 30° ENE
Meteor 1-20 Rocket 4.4 22:51:25 10° N 22:56:46 53° ENE 22:56:55 53° E
Nimbus 7 Rocket 4.4 22:51:07 10° NNE 22:56:57 57° ESE 22:57:04 57° ESE
Cosmos 1452 Rocket 3.3 23:02:32 84° SSE 23:02:39 85° ESE 23:07:56 10° NNE
Cosmos 1821 Rocket 4.0 23:02:17 49° SSW 23:04:10 83° W 23:10:31 10° N
Landsat 7 4.1 23:04:34 58° WSW 23:04:47 59° W 23:09:30 10° NNW
H-2A R/B 4.5 23:05:55 14° NE 23:05:55 14° NE 23:07:58 10° NNE
Cosmos 1862 Rocket 4.4 23:07:57 42° NNE 23:07:57 42° NNE 23:11:01 10° NNE
Cosmos 1933 4.2 23:08:55 48° WNW 23:08:55 48° WNW 23:12:31 10° N
Cosmos 1633 4.4 23:13:13 10° N 23:15:05 29° N 23:15:05 29° N
Cosmos 2123 Rocket 3.9 23:12:14 10° N 23:18:36 87° W 23:19:23 71° S
USA 234 3.3 23:17:44 50° E 23:19:30 72° NNE 23:26:02 10° NW
Cosmos 1850 Rocket 3.9 23:14:25 10° NNW 23:19:18 80° NNW 23:19:18 80° NNW
Terra 2.2 23:22:51 57° W 23:22:51 57° W 23:27:15 10° NNW
GEOS 3 Rocket 4.5 23:19:50 10° NNE 23:25:01 49° NW 23:30:05 10° WSW
Spot 4 4.3 23:26:19 53° NNE 23:26:19 53° NNE 23:30:13 10° N
Cosmos 1140 Rocket 4.4 23:21:56 10° NW 23:26:42 37° WSW 23:26:48 37° WSW
Cosmos 1741 Rocket 4.0 23:21:29 10° NNW 23:26:31 78° NW 23:26:31 78° NW
SL-16 R/B 3.2 23:23:00 15° WSW 23:27:19 43° NW 23:32:44 10° NNE
Helios 1B rocket 4.0 23:28:36 10° N 23:32:14 30° WNW 23:32:29 30° WNW
SeaSat 1 4.0 23:31:59 26° NE 23:32:18 26° NE 23:36:22 10° N
CZ-2C R/B 3.3 23:36:31 59° NW 23:36:31 59° NW 23:40:33 10° NNW
Cosmos 1943 Rocket 2.4 23:31:12 10° NNW 23:36:23 59° NE 23:36:23 59° NE
Lacrosse 5 2.3 23:35:55 10° NW 23:40:20 58° N 23:40:20 58° N
CZ-4C R/B 2.4 23:43:31 63° NE 23:43:31 63° NE 23:48:38 10° NE
Cosmos 1603 3.8 23:54:20 70° NNW 23:54:20 70° NNW 23:59:37 10° NNE
